Location: Ca�ada de Tepoxonal
(18.5783°N, 99.7728°W)
Time: 03:36:51
(UTC+00:00)

Daily predictions for brighter satellites

Satellite Brightness Start Highest point End
(mag) Time Altitude Azimuth Time Altitude Azimuth Time Altitude Azimuth
SMAP 3.3 00:29:13 10° S 00:33:51 76° W 00:38:28 10° NNW
IUS-13 SRM-1 3.1 00:31:33 10° W 00:34:03 56° SSW 00:42:39 10° ESE
Cosmos 1271 Rocket 2.7 00:32:46 10° N 00:36:45 74° E 00:40:44 10° S
Cosmos 1300 4.3 00:34:39 10° SE 00:36:49 15° E 00:38:59 10° NE
H-2A R/B 2.9 00:33:49 10° S 00:37:38 79° WSW 00:41:32 10° NNW
Cosmos 1825 Rocket 3.9 00:33:35 10° N 00:37:58 74° W 00:42:23 10° S
ASTRO E2 3.1 00:35:04 10° WNW 00:39:02 62° SSW 00:42:58 10° SE
Cosmos 1339 Rocket 4.5 00:35:31 10° S 00:41:28 61° E 00:47:26 10° NNE
CZ-4 R/B 2.4 00:38:06 10° SE 00:41:32 26° ENE 00:45:01 10° NNE
Cosmos 1953 Rocket 3.4 00:37:46 10° N 00:42:05 75° E 00:46:23 10° S
GPS 2-12 Rocket1 3.1 00:40:10 10° W 00:44:51 77° N 00:49:11 11° E
NOSS 3-2 (C) 3.2 00:41:37 10° SSW 00:46:59 60° ESE 00:52:41 10° NE
Envisat 3.1 00:42:06 10° SSE 00:47:01 53° ENE 00:51:57 10° N
ASTEX 1 3.6 00:45:17 10° N 00:50:15 82° W 00:55:14 10° S
Cosmos 1812 Rocket 3.8 00:54:05 10° SSE 00:58:17 47° E 01:02:31 10° NNE
Cosmos 1833 Rocket 4.2 00:58:23 10° NE 01:01:06 14° ENE 01:01:06 14° ENE
SL-4 R/B 2.4 00:59:02 10° NNW 01:02:19 32° NE 01:04:01 20° E
CZ-4 R/B 4.4 00:59:24 10° SSE 01:03:25 57° ENE 01:07:27 10° N
Cosmos 1727 Rocket 3.9 01:00:04 10° S 01:06:12 67° E 01:12:18 10° N
Cosmos 1703 3.1 01:02:22 10° N 01:06:14 64° E 01:10:04 10° SSE
YAOGAN 1 2.8 01:04:37 10° SSE 01:08:43 44° ENE 01:12:50 10° N
Cosmos 1605 Rocket 4.0 01:05:22 10° N 01:11:22 57° E 01:17:18 10° SSE
ADEOS Rocket 4.3 01:08:36 10° NE 01:13:57 22° E 01:18:56 10° SE
CSL-04 Debris 4.2 01:09:00 10° SSE 01:14:16 56° ENE 01:19:36 10° N
Cosmos 1934 Rocket 4.3 01:11:18 10° N 01:17:37 73° W 01:23:57 10° S
Centaur AC-102 4.0 01:04:35 10° WSW 01:17:53 68° S 01:20:56 24° E
CZ-4C R/B 3.9 01:10:39 10° NW 01:18:29 55° WSW 01:26:38 10° S
ATLAS 3B R/B 2.6 01:11:47 10° SSW 01:18:39 71° ESE 01:25:19 10° NNE
Meteor 2-1 Rocket 4.4 01:13:46 10° SSE 01:18:56 43° E 01:24:06 10° NNE
NOAA 15 4.5 01:19:27 10° SSE 01:24:44 78° ENE 01:30:02 10° N
Cosmos 2082 Rocket 4.2 01:24:52 10° NNE 01:25:23 12° NNE 01:25:23 12° NNE
CENTAUR R/B 2.2 01:23:07 10° SSW 01:28:31 86° WNW 01:34:35 10° NNE
Ariane Rocket 3.7 01:30:23 31° ENE 01:30:23 31° ENE 01:34:13 10° NNE
Cosmos 1000 Rocket 4.4 01:28:30 10° S 01:34:29 57° E 01:40:32 10° NNE
CZ-3 Stage 3 3.5 01:34:05 10° NW 01:35:04 11° NNW 01:35:50 10° N
Cosmos 1943 Rocket 3.6 01:31:35 10° SSE 01:33:40 19° SE 01:33:40 19° SE
Cosmos 468 Rocket 3.9 01:31:12 10° S 01:36:29 74° ESE 01:41:06 14° NNE
Cosmos 839 Rocket 4.4 01:30:12 10° NNW 01:36:55 63° ENE 01:45:15 10° SSE
COSMOS 2406 3.2 01:34:25 10° NNW 01:40:10 86° WSW 01:45:52 10° SSE
FUSE 4.1 01:34:59 10° WNW 01:40:16 60° NNE 01:41:30 47° ENE
Cosmos 1570 Rocket 4.0 01:38:37 10° S 01:43:47 57° ESE 01:44:49 48° ENE
Cosmos-2242 3.9 01:42:00 10° S 01:44:38 34° SSE 01:44:38 34° SSE
SEDSat Delta rocket 3.3 01:42:18 10° WSW 01:47:21 65° NNW 01:48:07 55° NNE
SL-24 R/B 4.1 01:42:23 10° NNE 01:47:26 77° ESE 01:51:48 10° S
Lacrosse 5 rocket 2.8 01:50:00 10° NW 01:53:41 36° WSW 01:56:10 19° S
Cosmos 2344 3.9 01:46:48 10° S 01:54:39 41° ESE 01:54:51 41° ESE
SWIFT 3.1 01:51:35 10° WSW 01:55:01 43° SSW 01:55:01 43° SSW
Cosmos 2208 Rocket 4.2 01:51:06 10° S 01:55:24 54° SSE 01:55:24 54° SSE
GPS 2-18 Rocket1 4.1 01:56:18 10° W 01:59:19 46° WNW 01:59:19 46° WNW
Atlas Centaur 2 4.4 01:58:44 10° WSW 02:02:14 16° SW 02:05:20 10° S
USA 234 3.1 02:03:15 50° NE 02:05:12 85° SE 02:11:44 10° SW
Cosmos 1763 Rocket 4.2 02:12:15 10° SSW 02:17:23 52° WNW 02:18:48 41° NNW
CZ-3B R/B 4.4 01:59:57 10° WNW 02:22:22 83° NNE 02:29:53 49° E
Cosmos 1833 Rocket 4.2 02:39:53 10° NNW 02:42:54 30° NW 02:42:54 30° NW
Cosmos 2369 Rocket 4.4 02:43:53 10° SSW 02:45:09 17° SSW 02:45:09 17° SSW
ADEOS Rocket 4.3 02:52:37 10° N 02:59:25 43° WNW 03:05:38 10° SW
ATLAS 5 CENTAUR R/B 3.9 02:52:54 10° WSW 03:01:20 78° SSE 03:55:36 10° E
CZ-3A R/B 4.2 01:53:31 10° WNW 03:10:59 87° SSW 03:11:35 84° SE
Milstar 3 3.3 09:56:46 58° ENE 09:56:46 58° ENE 10:01:50 10° ENE
MSX 3.8 10:24:01 10° NNE 10:37:12 - S 10:29:27 77° ENE
Delta 198 4.4 10:31:27 64° NNE 10:31:27 64° NNE 10:37:12 10° ENE
PAYLOAD A 4.3 10:28:34 10° NNE 10:33:32 63° ESE 10:38:40 10° S
SL-16 R/B 2.5 10:33:56 31° S 10:36:39 65° ESE 10:42:14 10° NNE
Cosmos 2074 Rocket 3.8 10:30:53 10° S 10:37:07 85° W 10:43:22 10° N
Skynet4D Del rocket 4.5 10:47:23 50° W 10:49:54 78° SSW 10:58:13 10° ESE
Delta 7925 Rocket 4.5 10:53:36 40° NW 10:54:48 44° N 11:00:13 10° ENE
GPS 2-15 Rocket1 4.1 10:59:10 33° SSW 11:00:16 38° SSE 11:04:38 10° E
Cosmos 2278 Rocket 3.1 10:55:18 10° N 11:00:46 49° ENE 11:06:12 10° SE
Cosmos 676 Rocket 4.2 11:03:28 46° NW 11:03:28 46° NW 11:07:59 10° N
CZ-3B R/B 3.2 11:01:18 28° SSW 11:03:16 47° SE 11:14:34 10° ENE
Cosmos 2181 Rocket 4.2 11:03:11 29° NW 11:05:56 45° W 11:11:45 10° SSW
CZ-2C R/B 2.3 11:02:11 10° N 11:07:17 68° WNW 11:12:16 10° SSW
Okean 1-7 Rocket 3.7 11:05:25 10° S 11:09:47 74° E 11:14:13 10° N
IUS-9 SRM-1 3.7 11:11:36 17° NNE 11:11:43 17° NNE 11:14:19 10° ENE
Milstar 3 Cent rocket 2.7 11:10:17 35° WNW 11:12:12 46° NNW 11:16:49 10° NE
PSLV R/B 4.4 11:10:32 10° NNE 11:14:08 54° E 11:17:45 10° S
SL-8 R/B 4.4 11:17:23 33° NW 11:17:34 33° NW 11:21:53 10° NNE
Cosmos 1953 2.5 11:18:55 10° N 11:22:54 72° E 11:26:51 10° S
USA 238 DEB 3.9 11:17:31 10° NNW 11:24:48 64° WSW 11:32:11 10° SSE
USA 238 3.9 11:17:37 10° NNW 11:24:54 65° WSW 11:32:17 10° SSE
CZ-4B R/B 2.9 11:21:18 10° N 11:24:54 44° WNW 11:28:23 10° SSW
GPS 2-14 Rocket1 2.5 11:24:32 41° W 11:25:43 75° SSW 11:29:28 10° ESE
DELTA 2 R/B (1) 3.5 11:22:05 22° SW 11:25:45 83° NW 11:31:18 10° NE
In-Cosmos 22 4.0 11:21:55 10° SSW 11:27:09 68° W 11:32:29 10° N
GPS 2-17 Rocket1 2.9 11:29:46 30° WNW 11:31:52 73° N 11:36:10 10° E
Cosmos 1758 3.8 11:29:40 15° NNW 11:32:33 36° W 11:36:17 10° SSW
Cosmos 2228 3.3 11:30:09 10° N 11:34:21 66° E 11:38:32 10° SSE
Cosmos 962 Rocket 4.4 11:28:13 10° S 11:34:25 78° W 11:40:44 10° N
Cosmos 1726 4.3 11:31:59 10° NNE 11:35:13 28° E 11:38:26 10° SE
Meteor 1-31 Rocket 3.5 11:32:53 10° NNW 11:36:10 28° WNW 11:39:26 10° SW
Cosmos 1726 Rocket 3.8 11:35:00 10° N 11:39:17 72° E 11:43:35 10° S
Cosmos 1674 2.5 11:36:48 10° S 11:40:29 87° W 11:44:11 10° N
Cosmos 1850 Rocket 3.9 11:36:15 10° SSW 11:41:21 60° WNW 11:46:27 10° N
Cosmos 921 Rocket 3.8 11:40:14 18° NW 11:42:20 27° W 11:45:52 10° SSW
Cosmos 2154 Rocket 4.4 11:37:02 10° SSW 11:42:38 36° W 11:48:16 10° NNW
Cosmos 1470 3.7 11:40:23 15° NW 11:42:45 26° W 11:45:59 10° SSW
Meteor 2-17 Rocket 4.4 11:38:03 10° S 11:44:08 82° W 11:50:12 10° N
NOSS 3-2 (A) 4.4 11:41:18 10° NW 11:49:16 53° WSW 11:57:33 10° S
CZ-4B DEB 4.1 11:44:03 10° N 11:49:29 78° WNW 11:54:56 10° SSW
Cosmos 1484 Rocket 2.9 11:48:38 10° N 11:52:22 49° WNW 11:56:08 10° SSW
Helios 1A Rocket 2.9 11:49:12 10° NNE 11:53:21 89° W 11:57:28 10° SSW
